LU4FBU-13 Weather Reports


time (UTC)temp
F
wind
direction
speed
knots
gust
knots
rain 1hr
in
rain 24hr
in
rain mn
in
humidity
%
barometer
mb
20260507155443 57 203 3.5 13.0 0.06 0.15 0.15 85 1004.2
20260507154423 58 270 7.0 14.8 0.04 0.13 0.13 81 1004.6
20260507153914 59 203 7.8 14.8 0.02 0.12 0.12 77 1005.9
20260507153405 60 248 7.8 17.4 0.00 0.09 0.09 69 1007.3
20260507153041 61 293 5.2 17.4 0.00 0.09 0.09 65 1009.0
20260507152344 62 315 6.1 17.4 0.00 0.09 0.09 63 1008.6
20260507152326 62 248 7.0 15.6 0.00 0.09 0.09 61 1006.5
20260507151832 62 248 7.0 15.6 0.00 0.09 0.09 61 1006.5
20260507151322 64 270 5.2 14.8 0.00 0.09 0.09 60 1005.7
20260507150813 63 270 9.6 15.6 0.00 0.09 0.09 63 1005.2
20260507144731 61 270 9.6 20.0 0.01 0.09 0.09 67 1003.6
20260507142651 61 248 9.6 20.9 0.01 0.09 0.09 73 1003.5
20260507141120 60 248 12.2 21.7 0.01 0.09 0.09 78 1004.6
20260507133007 63 270 9.6 20.0 0.00 0.08 0.08 67 1002.5
20260507130408 64 203 6.1 20.0 0.00 0.08 0.08 70 1002.4
20260507124840 65 270 10.4 20.0 0.00 0.08 0.08 66 1002.6
20260507123817 65 225 12.2 18.2 0.00 0.08 0.08 69 1002.2
20260507123308 66 225 4.3 14.8 0.00 0.08 0.08 73 1001.9
20260507113616 66 180 12.2 19.1 0.00 0.08 0.08 85 1001.1
20260507113006 66 180 7.0 18.2 0.00 0.08 0.08 86 1000.7
20260507105455 67 180 11.3 15.6 0.00 0.08 0.08 87 1000.3
20260507103415 67 180 3.5 13.9 0.00 0.08 0.08 87 999.6
20260507102355 67 180 9.6 19.1 0.00 0.08 0.08 87 999.1
20260507091138 68 180 9.6 12.2 0.00 0.08 0.08 90 997.1
20260507075359 68 180 1.7 9.6 0.08 0.08 0.08 91 998.1
20260507072300 71 158 3.5 9.6 0.01 0.01 0.01 83 998.5
20260507064648 74 203 0.0 7.8 0.00 0.00 0.00 91 998.3
20260507061038 74 90 0.0 3.5 0.00 0.00 0.00 91 997.7
20260507055721 74 68 1.7 3.5 0.00 0.00 0.00 90 997.9
20260507052110 74 45 1.7 3.5 0.00 0.00 0.00 89 998.3
20260507051602 74 68 0.9 3.5 0.00 0.00 0.00 89 998.6
20260507050030 75 68 1.7 3.5 0.00 0.00 0.00 88 998.5
20260507045011 75 68 1.7 3.5 0.00 0.00 0.00 87 998.2
20260507031709 76 68 2.6 5.2 0.00 0.00 0.00 84 999.0
20260507025117 77 45 0.9 1.7 0.00 0.00 0.00 83 999.3
20260507024055 77 45 0.9 3.5 0.00 0.00 0.00 83 999.2
20260507022527 77 23 1.7 1.7 0.00 0.00 0.00 82 999.3
20260507015934 77 23 1.7 3.5 0.00 0.00 0.00 81 999.2
20260507010753 78 45 2.6 6.1 0.00 0.00 0.00 80 998.7
20260507003654 78 68 2.6 9.6 0.00 0.00 0.00 79 998.4
20260506235021 80 45 1.7 6.1 0.00 0.00 0.00 76 998.9
20260506233450 81 45 3.5 11.3 0.00 0.00 0.00 74 998.9
20260506232947 81 0 3.5 13.9 0.00 0.00 0.00 74 998.8
20260506225840 82 23 7.0 13.0 0.00 0.00 0.00 70 998.7
20260506224822 82 23 5.2 13.0 0.00 0.00 0.00 71 998.6
20260506223248 82 45 3.5 9.6 0.00 0.00 0.00 73 998.8
20260506215127 83 23 3.5 9.6 0.00 0.00 0.00 71 999.2
20260506212537 84 0 1.7 7.0 0.00 0.00 0.00 70 999.3
20260506212032 84 23 1.7 7.0 0.00 0.00 0.00 70 999.1
20260506204431 86 23 2.6 11.3 0.00 0.00 0.00 65 999.0
20260506200807 87 0 6.1 12.2 0.00 0.00 0.00 63 999.2
20260506194725 88 23 6.1 14.8 0.00 0.00 0.00 63 999.6
20260506182442 87 315 5.2 13.0 0.00 0.00 0.00 64 1000.3
20260506180401 87 23 6.1 14.8 0.00 0.00 0.00 63 1000.3
20260506173756 87 23 6.1 15.6 0.00 0.00 0.00 64 1000.7
20260506162534 87 45 5.2 12.2 0.00 0.00 0.00 66 1002.0
20260506160453 87 45 3.5 14.8 0.00 0.00 0.00 67 1002.3